Home   Weather   Horn   Past weeks

Flag for Austria Past Weather in Horn, Lower Austria, Austria — Yesterday and Last 2 Weeks

Now
19 °F

Fog.


Feels Like: 14 °F
Forecast: 17 / 27 °F
Wind: 3 mph from Northwest

Location: Retz

Current Time: Jan 24, 2017 at 8:22:42 am

Latest Report: Jan 24, 2017 at 7:00 am


Visibility: 2 mi

Pressure: 30.33 "Hg

Humidity: 91%

Dew Point: 17 °F

Location of HornLocation

Past Weather in Horn — Graph

°F

Horn Temperature Yesterday

Maximum temperature yesterday: 23 °F (at 7:00 am)
Minimum temperature yesterday: 20 °F (at 6:00 pm)
Average temperature yesterday: 21 °F

High & Low Weather Summary for the Past Weeks

 TemperatureHumidityPressure
High42 °F (Jan 12, 2:00 pm)98% (Jan 12, 11:00 pm)30.73 "Hg (Jan 12, 11:00 pm)
Low9 °F (Jan 11, 2:00 am)53% (Jan 13, 1:00 pm)29.44 "Hg (Jan 13, 6:00 am)
Average24 °F78%30.25 "Hg
* Reported Jan 9 7:00 am — Jan 24 7:00 am, Horn, Weather by CustomWeather, © 2017

Note: Actual official high and low records may vary slightly from our data, if they occured in-between our weather recording intervals... More about our weather records

Advertising

Horn Weather History for the Previous 24 Hours

Scroll right to see more
 ConditionsComfort  
Time TempWeatherWind HumidityBarometerVisibility
7:00 am
Tue, Jan 24
19 °FFog.3 mph91%30.33 "Hg2 mi
6:00 am19 °FCold.5 mph92%30.32 "HgN/A
5:00 am20 °FCold.2 mph93%30.32 "HgN/A
4:00 am20 °FCold.1 mph93%30.31 "HgN/A
3:00 am20 °FCold.1 mph92%30.31 "HgN/A
2:00 am20 °FCold.1 mph93%30.31 "HgN/A
1:00 am20 °FPassing clouds.3 mph93%30.32 "Hg0 mi
12:00 am21 °FCold.1 mph91%30.33 "HgN/A
11:00 pm
Mon, Jan 23
21 °FCold.1 mph91%30.33 "HgN/A
10:00 pm21 °FCold.2 mph91%30.33 "HgN/A
9:00 pm21 °FCold.2 mph90%30.33 "HgN/A
8:00 pm20 °FCold.2 mph92%30.34 "HgN/A
7:00 pm20 °FFog.1 mph91%30.34 "Hg2 mi
6:00 pm20 °FCold.2 mph93%30.34 "HgN/A
5:00 pm20 °FCold.2 mph94%30.34 "HgN/A
4:00 pm21 °FCold.2 mph92%30.34 "HgN/A
3:00 pm21 °FCold.3 mph91%30.34 "HgN/A
2:00 pm21 °FCold.2 mph89%30.34 "HgN/A
1:00 pm22 °FFog.5 mph89%30.36 "Hg1 mi
12:00 pm22 °FCold.3 mph90%30.37 "HgN/A
11:00 am22 °FCold.3 mph91%30.38 "HgN/A
10:00 am23 °FCold.5 mph90%30.38 "HgN/A
9:00 am23 °FCold.5 mph94%30.37 "HgN/A
8:00 am23 °FCold.3 mph91%30.37 "HgN/A
Weather by CustomWeather, © 2017

See weather overviewHow to use our weather pages